Time,TemperatureF,DewpointF,PressureIn,WindDirection,WindDirectionDegrees,WindSpeedMPH,WindSpeedGustMPH,Humidity,HourlyPrecipIn,Conditions,Clouds,dailyrainin,SolarRadiationWatts/m^2,SoftwareType,DateUTC
2013-03-17 00:13:00,26.2,21.0,30.13,NNW,333,8.0,12.0,80,0.00,,,0.00,0,weatherlink.com 1.10,2013-03-17 05:13:00,
2013-03-17 00:28:00,26.0,21.0,30.13,NNW,329,8.0,11.0,80,0.00,,,0.00,0,weatherlink.com 1.10,2013-03-17 05:28:00,
2013-03-17 00:43:00,25.7,21.0,30.13,NNW,331,9.0,10.0,81,0.00,,,0.00,0,weatherlink.com 1.10,2013-03-17 05:43:00,
2013-03-17 00:58:00,25.5,21.0,30.13,NNW,327,8.0,11.0,82,0.00,,,0.00,0,weatherlink.com 1.10,2013-03-17 05:58:00,
2013-03-17 01:13:00,25.3,21.0,30.13,NNW,327,5.0,10.0,82,0.00,,,0.00,0,weatherlink.com 1.10,2013-03-17 06:13:00,
2013-03-17 01:28:00,25.0,20.0,30.12,NNW,333,3.0,11.0,82,0.00,,,0.00,0,weatherlink.com 1.10,2013-03-17 06:28:00,
2013-03-17 01:43:00,24.8,20.0,30.13,NW,324,9.0,9.0,83,0.00,,,0.00,0,weatherlink.com 1.10,2013-03-17 06:43:00,
2013-03-17 01:58:00,24.7,20.0,30.13,NNW,344,2.0,10.0,83,0.00,,,0.00,0,weatherlink.com 1.10,2013-03-17 06:58:00,
2013-03-17 02:13:00,24.5,20.0,30.14,NNW,345,6.0,8.0,83,0.00,,,0.00,0,weatherlink.com 1.10,2013-03-17 07:13:00,
2013-03-17 02:28:00,24.3,20.0,30.14,NNW,333,1.0,7.0,82,0.00,,,0.00,0,weatherlink.com 1.10,2013-03-17 07:28:00,
2013-03-17 02:43:00,24.2,19.0,30.13,NNW,344,4.0,9.0,81,0.00,,,0.00,0,weatherlink.com 1.10,2013-03-17 07:43:00,
2013-03-17 02:58:00,24.1,19.0,30.13,North,355,6.0,8.0,82,0.00,,,0.00,0,weatherlink.com 1.10,2013-03-17 07:58:00,
2013-03-17 03:13:00,24.0,19.0,30.13,NNE,13,3.0,8.0,81,0.00,,,0.00,0,weatherlink.com 1.10,2013-03-17 08:13:00,
2013-03-17 03:28:00,24.0,19.0,30.12,North,360,2.0,11.0,82,0.00,,,0.00,0,weatherlink.com 1.10,2013-03-17 08:28:00,
2013-03-17 03:44:00,23.8,19.0,30.12,NNE,15,8.0,16.0,81,0.00,,,0.00,0,weatherlink.com 1.10,2013-03-17 08:44:00,
2013-03-17 03:59:00,23.6,18.0,30.11,NNE,18,7.0,17.0,79,0.00,,,0.00,0,weatherlink.com 1.10,2013-03-17 08:59:00,
2013-03-17 04:14:00,23.4,18.0,30.11,North,5,8.0,17.0,80,0.00,,,0.00,0,weatherlink.com 1.10,2013-03-17 09:14:00,
2013-03-17 04:29:00,23.0,16.0,30.11,NNE,15,11.0,22.0,74,0.00,,,0.00,0,weatherlink.com 1.10,2013-03-17 09:29:00,
2013-03-17 04:44:00,22.6,16.0,30.11,NNE,27,15.0,19.0,76,0.00,,,0.00,0,weatherlink.com 1.10,2013-03-17 09:44:00,
2013-03-17 04:59:00,22.4,16.0,30.12,NNE,28,12.0,17.0,75,0.00,,,0.00,0,weatherlink.com 1.10,2013-03-17 09:59:00,
2013-03-17 05:14:00,22.2,16.0,30.13,NNE,33,9.0,14.0,76,0.00,,,0.00,0,weatherlink.com 1.10,2013-03-17 10:14:00,
2013-03-17 05:29:00,21.8,15.0,30.13,NE,35,14.0,17.0,74,0.00,,,0.00,0,weatherlink.com 1.10,2013-03-17 10:29:00,
2013-03-17 05:44:00,21.6,15.0,30.15,NNE,23,15.0,18.0,75,0.00,,,0.00,0,weatherlink.com 1.10,2013-03-17 10:44:00,
2013-03-17 05:59:00,21.2,14.0,30.15,NE,35,15.0,19.0,75,0.00,,,0.00,0,weatherlink.com 1.10,2013-03-17 10:59:00,
2013-03-17 06:14:00,21.0,14.0,30.16,NE,53,8.0,15.0,75,0.00,,,0.00,0,weatherlink.com 1.10,2013-03-17 11:14:00,
2013-03-17 06:29:00,20.8,13.0,30.17,ENE,65,11.0,16.0,73,0.00,,,0.00,0,weatherlink.com 1.10,2013-03-17 11:29:00,
2013-03-17 06:44:00,20.7,13.0,30.18,NE,55,12.0,16.0,73,0.00,,,0.00,0,weatherlink.com 1.10,2013-03-17 11:44:00,
2013-03-17 06:59:00,20.5,13.0,30.18,ENE,60,11.0,15.0,73,0.00,,,0.00,0,weatherlink.com 1.10,2013-03-17 11:59:00,
2013-03-17 07:14:00,20.3,14.0,30.18,ENE,59,11.0,13.0,75,0.00,,,0.00,12,weatherlink.com 1.10,2013-03-17 12:14:00,
2013-03-17 07:29:00,20.4,14.0,30.17,ENE,63,9.0,13.0,75,0.00,,,0.00,46,weatherlink.com 1.10,2013-03-17 12:29:00,
2013-03-17 07:44:00,20.6,14.0,30.17,ENE,67,14.0,16.0,76,0.00,,,0.00,83,weatherlink.com 1.10,2013-03-17 12:44:00,
2013-03-17 07:59:00,20.8,14.0,30.17,ENE,61,11.0,14.0,74,0.00,,,0.00,102,weatherlink.com 1.10,2013-03-17 12:59:00,
2013-03-17 08:14:00,20.6,13.0,30.18,ENE,63,11.0,18.0,73,0.00,,,0.00,134,weatherlink.com 1.10,2013-03-17 13:14:00,
2013-03-17 08:29:00,20.8,14.0,30.18,ENE,66,11.0,15.0,75,0.00,,,0.00,185,weatherlink.com 1.10,2013-03-17 13:29:00,
2013-03-17 08:44:00,21.2,14.0,30.19,ENE,61,13.0,18.0,73,0.00,,,0.00,279,weatherlink.com 1.10,2013-03-17 13:44:00,
2013-03-17 08:59:00,21.6,15.0,30.20,ENE,66,13.0,18.0,74,0.00,,,0.00,295,weatherlink.com 1.10,2013-03-17 13:59:00,
2013-03-17 09:14:00,22.1,15.0,30.20,ENE,59,12.0,15.0,75,0.00,,,0.00,264,weatherlink.com 1.10,2013-03-17 14:14:00,
2013-03-17 09:30:00,22.7,16.0,30.20,ENE,71,14.0,16.0,74,0.00,,,0.00,320,weatherlink.com 1.10,2013-03-17 14:30:00,
2013-03-17 09:45:00,23.2,15.0,30.20,East,93,13.0,14.0,72,0.00,,,0.00,408,weatherlink.com 1.10,2013-03-17 14:45:00,
2013-03-17 10:00:00,23.7,17.0,30.20,East,84,8.0,13.0,76,0.00,,,0.00,485,weatherlink.com 1.10,2013-03-17 15:00:00,
2013-03-17 10:15:00,24.4,18.0,30.20,East,98,10.0,16.0,77,0.00,,,0.00,520,weatherlink.com 1.10,2013-03-17 15:15:00,
2013-03-17 10:30:00,24.8,19.0,30.19,East,99,15.0,16.0,77,0.00,,,0.00,557,weatherlink.com 1.10,2013-03-17 15:30:00,
2013-03-17 10:45:00,25.2,19.0,30.19,East,96,13.0,16.0,76,0.00,,,0.00,591,weatherlink.com 1.10,2013-03-17 15:45:00,
2013-03-17 11:00:00,25.7,19.0,30.19,ESE,102,13.0,17.0,77,0.00,,,0.00,624,weatherlink.com 1.10,2013-03-17 16:00:00,
2013-03-17 11:15:00,26.3,20.0,30.19,East,86,10.0,14.0,76,0.00,,,0.00,650,weatherlink.com 1.10,2013-03-17 16:15:00,
2013-03-17 11:30:00,26.7,20.0,30.18,East,90,13.0,17.0,77,0.00,,,0.00,679,weatherlink.com 1.10,2013-03-17 16:30:00,
2013-03-17 11:45:00,27.4,22.0,30.17,East,89,10.0,18.0,80,0.00,,,0.00,703,weatherlink.com 1.10,2013-03-17 16:45:00,
2013-03-17 12:00:00,27.6,21.0,30.17,East,82,10.0,17.0,77,0.00,,,0.00,731,weatherlink.com 1.10,2013-03-17 17:00:00,
2013-03-17 12:15:00,27.9,22.0,30.17,East,91,11.0,16.0,77,0.00,,,0.00,970,weatherlink.com 1.10,2013-03-17 17:15:00,
2013-03-17 12:30:00,27.7,22.0,30.16,East,91,14.0,15.0,78,0.00,,,0.00,605,weatherlink.com 1.10,2013-03-17 17:30:00,
2013-03-17 12:45:00,28.3,22.0,30.16,East,86,13.0,17.0,78,0.00,,,0.00,974,weatherlink.com 1.10,2013-03-17 17:45:00,
2013-03-17 13:00:00,28.7,23.0,30.15,East,98,11.0,17.0,78,0.01,,,0.01,496,weatherlink.com 1.10,2013-03-17 18:00:00,
2013-03-17 13:15:00,29.1,24.0,30.14,East,96,16.0,17.0,80,0.01,,,0.01,554,weatherlink.com 1.10,2013-03-17 18:15:00,
2013-03-17 13:30:00,29.6,24.0,30.13,ESE,109,8.0,16.0,78,0.01,,,0.01,462,weatherlink.com 1.10,2013-03-17 18:30:00,
2013-03-17 13:45:00,29.7,23.0,30.11,East,87,14.0,17.0,77,0.01,,,0.01,464,weatherlink.com 1.10,2013-03-17 18:45:00,
2013-03-17 14:00:00,29.8,24.0,30.11,ESE,108,10.0,15.0,78,0.00,,,0.01,388,weatherlink.com 1.10,2013-03-17 19:00:00,
2013-03-17 14:15:00,30.1,24.0,30.10,ESE,121,13.0,21.0,78,0.00,,,0.01,329,weatherlink.com 1.10,2013-03-17 19:15:00,
2013-03-17 14:30:00,30.2,25.0,30.10,ESE,109,15.0,18.0,80,0.00,,,0.01,316,weatherlink.com 1.10,2013-03-17 19:30:00,
2013-03-17 14:45:00,30.5,24.0,30.09,ESE,102,14.0,17.0,77,0.00,,,0.01,260,weatherlink.com 1.10,2013-03-17 19:45:00,
2013-03-17 15:00:00,30.3,24.0,30.09,ESE,113,12.0,16.0,77,0.00,,,0.01,232,weatherlink.com 1.10,2013-03-17 20:00:00,
2013-03-17 15:15:00,30.5,24.0,30.09,ESE,115,12.0,16.0,76,0.00,,,0.01,229,weatherlink.com 1.10,2013-03-17 20:15:00,
2013-03-17 15:30:00,30.8,25.0,30.08,ESE,115,16.0,16.0,78,0.00,,,0.01,234,weatherlink.com 1.10,2013-03-17 20:30:00,
2013-03-17 15:45:00,31.0,24.0,30.07,ESE,117,14.0,16.0,76,0.00,,,0.01,246,weatherlink.com 1.10,2013-03-17 20:45:00,
2013-03-17 16:01:00,31.4,25.0,30.06,ESE,117,13.0,17.0,77,0.00,,,0.01,272,weatherlink.com 1.10,2013-03-17 21:01:00,
2013-03-17 16:16:00,31.6,25.0,30.06,East,98,14.0,15.0,78,0.00,,,0.01,204,weatherlink.com 1.10,2013-03-17 21:16:00,
2013-03-17 16:31:00,31.5,25.0,30.05,East,89,15.0,19.0,78,0.00,,,0.01,197,weatherlink.com 1.10,2013-03-17 21:31:00,
2013-03-17 16:46:00,31.4,24.0,30.05,ESE,117,14.0,17.0,75,0.00,,,0.01,179,weatherlink.com 1.10,2013-03-17 21:46:00,
2013-03-17 17:31:00,31.3,26.0,30.04,East,83,15.0,18.0,79,0.00,,,0.01,111,weatherlink.com 1.10,2013-03-17 22:31:00,
2013-03-17 18:46:00,30.4,25.0,30.02,East,101,17.0,18.0,79,0.00,,,0.01,32,weatherlink.com 1.10,2013-03-17 23:46:00,
2013-03-17 19:16:00,29.4,25.0,30.01,East,84,11.0,18.0,82,0.00,,,0.01,0,weatherlink.com 1.10,2013-03-18 00:16:00,
2013-03-17 19:31:00,28.9,24.0,30.02,East,98,16.0,21.0,82,0.00,,,0.01,0,weatherlink.com 1.10,2013-03-18 00:31:00,
2013-03-17 19:46:00,28.6,24.0,30.01,East,94,13.0,18.0,81,0.00,,,0.01,0,weatherlink.com 1.10,2013-03-18 00:46:00,
2013-03-17 20:01:00,28.4,24.0,30.01,East,87,14.0,17.0,82,0.00,,,0.01,0,weatherlink.com 1.10,2013-03-18 01:01:00,
2013-03-17 20:16:00,28.1,23.0,30.00,East,94,15.0,19.0,82,0.00,,,0.01,0,weatherlink.com 1.10,2013-03-18 01:16:00,
2013-03-17 20:31:00,28.0,23.0,30.00,East,85,14.0,19.0,82,0.00,,,0.01,0,weatherlink.com 1.10,2013-03-18 01:31:00,
2013-03-17 20:46:00,27.8,23.0,30.00,East,100,18.0,21.0,83,0.00,,,0.01,0,weatherlink.com 1.10,2013-03-18 01:46:00,
2013-03-17 21:01:00,27.6,23.0,30.00,East,92,14.0,17.0,84,0.00,,,0.01,0,weatherlink.com 1.10,2013-03-18 02:01:00,
2013-03-17 21:16:00,27.5,23.0,30.00,East,99,16.0,19.0,84,0.00,,,0.01,0,weatherlink.com 1.10,2013-03-18 02:16:00,
2013-03-17 21:31:00,27.4,23.0,29.99,East,90,13.0,16.0,84,0.00,,,0.01,0,weatherlink.com 1.10,2013-03-18 02:31:00,
2013-03-17 21:46:00,27.5,24.0,29.98,East,91,14.0,18.0,86,0.00,,,0.01,0,weatherlink.com 1.10,2013-03-18 02:46:00,
2013-03-17 22:01:00,27.4,24.0,29.99,East,98,11.0,16.0,86,0.00,,,0.01,0,weatherlink.com 1.10,2013-03-18 03:01:00,
2013-03-17 22:16:00,27.4,24.0,29.98,ESE,114,13.0,17.0,86,0.00,,,0.01,0,weatherlink.com 1.10,2013-03-18 03:16:00,
2013-03-17 22:31:00,27.6,24.0,29.98,East,100,13.0,17.0,86,0.00,,,0.01,0,weatherlink.com 1.10,2013-03-18 03:31:00,
2013-03-17 22:46:00,27.5,24.0,29.97,ESE,104,13.0,17.0,86,0.00,,,0.01,0,weatherlink.com 1.10,2013-03-18 03:46:00,
2013-03-17 23:01:00,27.3,24.0,29.96,East,101,11.0,15.0,86,0.00,,,0.01,0,weatherlink.com 1.10,2013-03-18 04:01:00,
2013-03-17 23:16:00,27.2,24.0,29.96,ESE,108,10.0,13.0,86,0.00,,,0.01,0,weatherlink.com 1.10,2013-03-18 04:16:00,
2013-03-17 23:32:00,27.1,24.0,29.95,ESE,102,9.0,11.0,86,0.00,,,0.01,0,weatherlink.com 1.10,2013-03-18 04:32:00,
2013-03-17 23:47:00,26.9,24.0,29.95,ESE,102,5.0,10.0,87,0.00,,,0.01,0,weatherlink.com 1.10,2013-03-18 04:47:00,